When you browse on this site, cookies collect data to enhance your experience and personalize the content and advertising you see.
Visit our Privacy Policy to learn more. By continuing to use the site, you agree to this use of cookies and data.
  • In Hungary
  • List of Countries
  • For 7 days
  • Water Temperature
  • Satellite Maps
  • Weather Map
  • News
  • Weather Widgets
  • user-avatar
    Login

    Hourly Weather Perevozets'

    Today, 16 December, Sunday

    Time Temperature Precipitation Wind Pressure Humidity
    00:00 -6°C° 0.3 mm 6 mps 740 mmHg 91%
    01:00 -5°C° 0.3 mm 6 mps 740 mmHg 91%
    02:00 -5°C° 0 mm 4 mps 739 mmHg 90%
    03:00 -6°C° 0.2 mm 5 mps 739 mmHg 90%
    04:00 -6°C° 0.2 mm 5 mps 739 mmHg 91%
    05:00 -6°C° 0.2 mm 6 mps 739 mmHg 91%
    06:00 -6°C° 0.2 mm 6 mps 739 mmHg 91%
    07:00 -6°C° 0.2 mm 6 mps 739 mmHg 92%
    08:00 -5°C° 0.2 mm 6 mps 738 mmHg 92%
    09:00 -5°C° 0.3 mm 6 mps 738 mmHg 91%
    10:00 -5°C° 0.3 mm 6 mps 739 mmHg 91%
    11:00 -4°C° 0.3 mm 6 mps 739 mmHg 90%
    12:00 -4°C° 0.1 mm 6 mps 739 mmHg 90%
    13:00 -3°C° 0.1 mm 6 mps 738 mmHg 90%
    14:00 -2°C° 0.1 mm 5 mps 738 mmHg 90%
    15:00 -2°C° 0.1 mm 5 mps 738 mmHg 91%
    16:00 -2°C° 0.1 mm 5 mps 738 mmHg 92%
    17:00 -4°C° 0.1 mm 5 mps 738 mmHg 93%
    18:00 -3°C° 0.1 mm 4 mps 739 mmHg 94%
    19:00 -3°C° 0.1 mm 4 mps 739 mmHg 94%
    20:00 -3°C° 0.1 mm 4 mps 739 mmHg 94%
    21:00 -3°C° 0.2 mm 4 mps 739 mmHg 94%
    22:00 -3°C° 0.2 mm 4 mps 739 mmHg 95%
    23:00 -2°C° 0.2 mm 3 mps 739 mmHg 95%

    Tomorrow, 17 December, Monday

    Time Temperature Precipitation Wind Pressure Humidity
    00:00 -2°C° 0.4 mm 3 mps 739 mmHg 95%
    01:00 -1°C° 0.4 mm 3 mps 739 mmHg 96%
    02:00 -1°C° 0.4 mm 3 mps 739 mmHg 96%
    03:00 -1°C° 0.5 mm 2 mps 739 mmHg 96%
    04:00 -1°C° 0.5 mm 2 mps 739 mmHg 96%
    05:00 -2°C° 0.5 mm 2 mps 739 mmHg 96%
    06:00 -2°C° 0.2 mm 2 mps 739 mmHg 96%
    07:00 -2°C° 0.2 mm 2 mps 739 mmHg 96%
    08:00 -2°C° 0.2 mm 2 mps 739 mmHg 96%
    09:00 -1°C° 0.2 mm 2 mps 739 mmHg 96%
    10:00 -1°C° 0.2 mm 2 mps 739 mmHg 96%
    11:00 -1°C° 0.2 mm 2 mps 739 mmHg 96%
    12:00 -1°C° 0.2 mm 2 mps 739 mmHg 96%
    13:00 +1°C° 0.2 mm 1 mps 739 mmHg 97%
    14:00 +1°C° 0.2 mm 1 mps 739 mmHg 97%
    15:00 +1°C° 0.1 mm 1 mps 739 mmHg 97%
    16:00 +1°C° 0.1 mm 1 mps 740 mmHg 97%
    17:00 +1°C° 0.1 mm 1 mps 740 mmHg 98%
    18:00 0°C° 0.2 mm 1 mps 740 mmHg 97%
    19:00 0°C° 0.2 mm 1 mps 741 mmHg 97%
    20:00 0°C° 0.2 mm 1 mps 741 mmHg 97%
    21:00 0°C° 0.2 mm 1 mps 742 mmHg 97%
    22:00 0°C° 0.2 mm 1 mps 742 mmHg 97%
    23:00 0°C° 0.2 mm 1 mps 742 mmHg 97%

    Day after tomorrow, 18 December, Tuesday

    Time Temperature Precipitation Wind Pressure Humidity
    00:00 0°C° 0.2 mm 1 mps 742 mmHg 97%
    01:00 0°C° 0.2 mm 1 mps 743 mmHg 97%
    02:00 -1°C° 0.2 mm 1 mps 743 mmHg 97%
    03:00 -1°C° 0.2 mm 1 mps 743 mmHg 97%
    04:00 -1°C° 0.2 mm 1 mps 743 mmHg 96%
    05:00 -1°C° 0.2 mm 1 mps 743 mmHg 96%
    06:00 -1°C° 0.1 mm 1 mps 743 mmHg 96%
    07:00 -1°C° 0.1 mm 1 mps 744 mmHg 96%
    08:00 -4°C° 0.1 mm 2 mps 744 mmHg 95%
    09:00 -1°C° 0 mm 1 mps 744 mmHg 94%
    10:00 -1°C° 0 mm 1 mps 744 mmHg 93%
    11:00 -1°C° 0 mm 1 mps 745 mmHg 92%
    12:00 0°C° 0 mm 1 mps 744 mmHg 91%
    13:00 0°C° 0 mm 1 mps 744 mmHg 91%
    14:00 0°C° 0 mm 1 mps 744 mmHg 90%
    15:00 -1°C° 0 mm 1 mps 744 mmHg 92%
    16:00 -3°C° 0 mm 0 mps 744 mmHg 93%
    17:00 -4°C° 0 mm 0 mps 744 mmHg 95%
    18:00 -4°C° 0 mm 0 mps 744 mmHg 94%
    19:00 -5°C° 0 mm 0 mps 744 mmHg 94%
    20:00 -5°C° 0 mm 0 mps 744 mmHg 94%
    21:00 -4°C° 0 mm 0 mps 744 mmHg 94%
    22:00 -4°C° 0 mm 0 mps 744 mmHg 94%
    23:00 -3°C° 0 mm 1 mps 744 mmHg 93%

    19 December, Wednesday

    Time Temperature Precipitation Wind Pressure Humidity
    00:00 -3°C° 0 mm 1 mps 744 mmHg 93%
    01:00 -3°C° 0 mm 1 mps 744 mmHg 93%
    02:00 -3°C° 0 mm 1 mps 744 mmHg 93%
    03:00 -3°C° 0 mm 1 mps 744 mmHg 93%
    04:00 -3°C° 0 mm 1 mps 744 mmHg 93%
    05:00 -3°C° 0 mm 1 mps 744 mmHg 93%
    06:00 -3°C° 0 mm 1 mps 744 mmHg 93%
    07:00 -3°C° 0 mm 1 mps 744 mmHg 93%
    08:00 -3°C° 0 mm 1 mps 744 mmHg 94%
    09:00 -3°C° 0 mm 1 mps 745 mmHg 92%
    10:00 -2°C° 0 mm 1 mps 745 mmHg 91%
    11:00 -2°C° 0 mm 1 mps 745 mmHg 90%
    12:00 -1°C° 0 mm 1 mps 745 mmHg 89%
    13:00 -1°C° 0 mm 1 mps 744 mmHg 89%
    14:00 -1°C° 0 mm 1 mps 744 mmHg 88%
    15:00 -2°C° 0 mm 1 mps 744 mmHg 90%
    16:00 -5°C° 0 mm 2 mps 744 mmHg 92%
    17:00 -5°C° 0 mm 2 mps 744 mmHg 94%
    18:00 -6°C° 0 mm 2 mps 745 mmHg 94%
    19:00 -6°C° 0 mm 2 mps 745 mmHg 94%
    20:00 -6°C° 0 mm 2 mps 745 mmHg 94%
    21:00 -6°C° 0 mm 2 mps 745 mmHg 94%
    22:00 -7°C° 0 mm 2 mps 745 mmHg 93%
    23:00 -8°C° 0 mm 2 mps 745 mmHg 93%

    20 December, Thursday

    Time Temperature Precipitation Wind Pressure Humidity
    00:00 -8°C° 0 mm 2 mps 745 mmHg 92%
    01:00 -8°C° 0 mm 2 mps 745 mmHg 92%
    02:00 -9°C° 0 mm 3 mps 745 mmHg 91%
    03:00 -10°C° 0 mm 3 mps 745 mmHg 91%
    04:00 -10°C° 0 mm 3 mps 745 mmHg 91%
    05:00 -10°C° 0 mm 3 mps 745 mmHg 91%
    06:00 -12°C° 0 mm 3 mps 745 mmHg 91%
    07:00 -12°C° 0 mm 3 mps 745 mmHg 90%
    08:00 -12°C° 0 mm 3 mps 745 mmHg 90%
    09:00 -10°C° 0 mm 3 mps 745 mmHg 89%
    10:00 -9°C° 0 mm 3 mps 745 mmHg 89%
    11:00 -8°C° 0 mm 3 mps 745 mmHg 88%
    12:00 -8°C° 0 mm 3 mps 744 mmHg 88%
    13:00 -7°C° 0 mm 3 mps 744 mmHg 88%
    14:00 -7°C° 0 mm 3 mps 744 mmHg 89%
    15:00 -8°C° 0 mm 3 mps 744 mmHg 89%
    16:00 -9°C° 0 mm 3 mps 744 mmHg 90%
    17:00 -10°C° 0 mm 3 mps 744 mmHg 91%
    18:00 -10°C° 0 mm 3 mps 744 mmHg 91%
    19:00 -10°C° 0 mm 3 mps 744 mmHg 91%
    20:00 -10°C° 0 mm 3 mps 744 mmHg 91%
    21:00 -10°C° 0 mm 3 mps 743 mmHg 91%
    22:00 -10°C° 0 mm 3 mps 743 mmHg 91%
    23:00 -11°C° 0 mm 4 mps 743 mmHg 92%

    21 December, Friday

    Time Temperature Precipitation Wind Pressure Humidity
    00:00 -10°C° 0 mm 3 mps 743 mmHg 92%
    01:00 -10°C° 0 mm 3 mps 743 mmHg 92%
    02:00 -10°C° 0 mm 3 mps 743 mmHg 92%
    03:00 -10°C° 0 mm 3 mps 742 mmHg 91%
    04:00 -10°C° 0 mm 3 mps 742 mmHg 91%
    05:00 -9°C° 0 mm 3 mps 742 mmHg 91%
    06:00 -9°C° 0 mm 3 mps 742 mmHg 91%
    07:00 -9°C° 0 mm 3 mps 742 mmHg 91%
    08:00 -9°C° 0 mm 3 mps 742 mmHg 91%
    09:00 -8°C° 0 mm 2 mps 742 mmHg 91%
    10:00 -7°C° 0 mm 2 mps 742 mmHg 90%
    11:00 -6°C° 0 mm 2 mps 742 mmHg 90%
    12:00 -6°C° 0 mm 2 mps 742 mmHg 91%
    13:00 -5°C° 0 mm 2 mps 741 mmHg 91%
    14:00 -5°C° 0 mm 2 mps 741 mmHg 91%
    15:00 -5°C° 0 mm 2 mps 741 mmHg 92%
    16:00 -6°C° 0 mm 2 mps 741 mmHg 93%
    17:00 -6°C° 0 mm 2 mps 741 mmHg 94%
    18:00 -6°C° 0 mm 2 mps 741 mmHg 93%
    19:00 -4°C° 0 mm 1 mps 741 mmHg 93%
    20:00 -3°C° 0 mm 1 mps 741 mmHg 93%
    21:00 -3°C° 0.1 mm 1 mps 741 mmHg 93%
    22:00 -3°C° 0.1 mm 1 mps 741 mmHg 93%
    23:00 -3°C° 0.1 mm 1 mps 741 mmHg 93%
    Show more